Weather History for Resia Pass, Italy

Change the Weather History Date:

Saturday, September 1, 2012

  Actual Average Record
Temperature  
Mean Temperature 48 °F -  
Max Temperature 51 °F 63 °F 77 °F (1997)
Min Temperature 44 °F 46 °F 39 °F (2003)
Degree Days  
Heating Degree Days 18    
Moisture  
Dew Point 41 °F    
Average Humidity 77    
Maximum Humidity 87    
Minimum Humidity 66    
Precipitation  
Precipitation 0.00 in - - ()
Sea Level Pressure  
Sea Level Pressure 30.05 in    
Wind  
Wind Speed 5 mph ()    
Max Wind Speed 8 mph    
Max Gust Speed 24 mph    
Visibility 6.2 miles    
Events      
Averages and records for this station are not official NWS values.
T = Trace of Precipitation, MM = Missing Value Source: Averaged Metar Reports

Daily Weather History Graph

Daily Weather History Graph

Search for Another Location

Airport:

Trip Planner

Search our weather history database for the weather conditions in past years. The results will help you decide how hot, cold, wet, or windy it might be!

Date:

Astronomy

Sep. 01, 2012 Rise Set
Actual Time 6:37 AM CEST 7:56 PM CEST
Civil Twilight 6:06 AM CEST 8:28 PM CEST
Nautical Twilight 5:28 AM CEST 9:06 PM CEST
Astronomical Twilight 4:47 AM CEST 9:46 PM CEST
Moon 7:56 PM CEST (9/1) 7:35 AM CEST (9/1)
Length of Visible Light 14h 21m
Length of Day
13h 19m
Full, 99% of the Moon is Illuminated
Sep 1
Full
Sep 8
Last Quarter
Sep 16
New
Sep 22
First Quarter
Sep 30
Full

Hourly Weather History & Observations

Time (CEST) Temp. Windchill Dew Point Humidity Pressure Visibility Wind Dir Wind Speed Gust Speed Precip Events Conditions
12:55 AM 44.6 °F 42.2 °F 39.2 °F 81% 30.01 in 6.2 mi NE 4.6 mph - N/A   Overcast
1:55 AM 44.6 °F 41.4 °F 41.0 °F 87% 30.01 in 6.2 mi NE 5.8 mph - N/A   Overcast
2:55 AM 44.6 °F 40.7 °F 41.0 °F 87% 30.01 in 6.2 mi NE 6.9 mph - N/A   Overcast
3:55 AM 44.6 °F 40.2 °F 39.2 °F 81% 29.98 in 6.2 mi NE 8.1 mph 20.7 mph N/A   Mostly Cloudy
4:55 AM 44.6 °F 40.7 °F 39.2 °F 81% 29.98 in 6.2 mi NE 6.9 mph 19.6 mph N/A   Mostly Cloudy
6:55 AM 44.6 °F 40.2 °F 39.2 °F 81% 29.98 in 6.2 mi NE 8.1 mph 24.2 mph N/A   Mostly Cloudy
7:55 AM 44.6 °F 40.7 °F 37.4 °F 76% 30.01 in 6.2 mi NE 6.9 mph 19.6 mph N/A   Mostly Cloudy
8:55 AM 44.6 °F 41.4 °F 39.2 °F 81% 30.01 in 6.2 mi NE 5.8 mph - N/A   Overcast
9:55 AM 48.2 °F - 39.2 °F 71% 30.04 in 6.2 mi NE 6.9 mph 18.4 mph N/A   Mostly Cloudy
10:55 AM 48.2 °F - 39.2 °F 71% 30.04 in 6.2 mi NNE 8.1 mph 23.0 mph N/A   Mostly Cloudy
11:55 AM 50.0 °F - 39.2 °F 66% 30.01 in 6.2 mi NE 5.8 mph 18.4 mph N/A   Scattered Clouds
12:55 PM 50.0 °F - 41.0 °F 71% 30.04 in 6.2 mi NNE 5.8 mph - N/A   Mostly Cloudy
1:55 PM 51.8 °F - 41.0 °F 67% 30.04 in 6.2 mi NNE 5.8 mph - N/A   Mostly Cloudy
2:55 PM 50.0 °F - 42.8 °F 76% 30.06 in 6.2 mi ENE 3.5 mph - N/A   Mostly Cloudy
3:55 PM 50.0 °F - 42.8 °F 76% 30.06 in 6.2 mi NNE 3.5 mph - N/A   Mostly Cloudy
4:55 PM 51.8 °F - 42.8 °F 71% 30.06 in 6.2 mi NNE 4.6 mph - N/A   Mostly Cloudy
5:55 PM 51.8 °F - 42.8 °F 71% 30.09 in 6.2 mi NNE 5.8 mph - N/A   Scattered Clouds
6:55 PM 50.0 °F - 42.8 °F 76% 30.09 in 6.2 mi NE 5.8 mph 18.4 mph N/A   Mostly Cloudy
7:55 PM 50.0 °F - 42.8 °F 76% 30.09 in 6.2 mi NNE 5.8 mph 17.3 mph N/A   Scattered Clouds
8:55 PM 48.2 °F - 42.8 °F 82% 30.12 in 6.2 mi NNE 3.5 mph - N/A   Scattered Clouds
9:55 PM 48.2 °F - 41.0 °F 76% 30.12 in 6.2 mi NNE 4.6 mph 17.3 mph N/A   Scattered Clouds
10:55 PM 48.2 °F - 42.8 °F 82% 30.15 in 6.2 mi NNE 8.1 mph 23.0 mph N/A   Scattered Clouds
11:55 PM 48.2 °F - 42.8 °F 82% 30.15 in 6.2 mi NNE 5.8 mph - N/A   Mostly Cloudy